Find Starlink 2226

NORAD ID: 48010 Int'l Des: 2021-024 Owner: SPXS Country: US Constellation: starlink operational
LEOCIRCULAR

現在のビュー

3D地球を読み込み中...

About Starlink 2226

Starlink 2226 (NORAD 48010) is a starlink constellation satellite (v1.0) launched Mar 24, 2021 by SPXS of US. It operates in LEO, CIRCULAR orbit with a mass of 260.00 kg.

Starlink 2226について

説明を読み込み中...

次回通過

Passes for default location (London). Set your location on the main map for personalized predictions.

高度履歴

Loading altitude history...

軌道要素

1 48010U 21024AK 26166.91679485 .00001177 00000-0 49681-4 0 9990
2 48010 53.1590 235.7158 0001161 76.0570 284.0561 15.31708827289617
Epoch: Jun 15, 2026 • Age: 14 hours

現在のステータス

高度 489.0 km
速度 7.62 km/s
衛星直下点 -50.75°S, 85.93°E
打ち上げ日 Mar 24, 2021
運用期間 5.2 years
タイプ internet

技術仕様

分類 Payload
質量 260.00 kg
乾燥質量 248.00 kg
総質量 260.00 kg
長さ 0.20 m
直径 2.80 m
スパン 9.00 m
形状 Box + pan
製造者 SPXS
バスタイプ Starlink
フェーズステータス In Orbit
所有者/国 SPXS/US

Most Searched